Ukiah, CA

6:08 AM PDT on May 22, 2018 (GMT -0700)
Ukiah Municipal

Weather History for KUKI - December, 2014

Change the Weather History Date:

Tuesday, December 23, 2014

  Actual Average Record
Temperature  
Mean Temperature 55 °F 45 °F  
Max Temperature 67 °F 54 °F 71 °F (1925)
Min Temperature 43 °F 36 °F 18 °F (1948)
Degree Days  
Heating Degree Days 10 20  
Month to date heating degree days 246 449  
Since 1 July heating degree days 647 1072  
Cooling Degree Days 0 0  
Month to date cooling degree days 0 0  
Year to date cooling degree days 1290 835  
Growing Degree Days 4 (Base 50)    
Moisture  
Dew Point 45 °F    
Average Humidity 78    
Maximum Humidity 100    
Minimum Humidity 56    
Precipitation  
Precipitation 0.00 in 0.26 in 4.11 in (1968)
Month to date precipitation 11.99 4.96  
Year to date precipitation 34.98 35.36  
Since 1 July precipitation 18.35  
Snow  
Snow 0.00 in - - ()
Month to date snowfall 0.0  
Since 1 July snowfall 0.0  
Snow Depth 0.00 in    
Sea Level Pressure  
Sea Level Pressure 30.22 in    
Wind  
Wind Speed 0 mph (WNW)    
Max Wind Speed 6 mph    
Max Gust Speed 7 mph    
Visibility 3 miles    
Events Fog    
T = Trace of Precipitation, MM = Missing Value Source: NWS Daily Summary

Daily Weather History Graph

Daily Weather History Graph

Search for Another Location

Airport or City:

Astronomy

Dec. 23, 2014 Rise Set
Actual Time 7:29 AM PST 4:54 PM PST
Civil Twilight 6:59 AM PST 5:24 PM PST
Nautical Twilight 6:25 AM PST 5:58 PM PST
Astronomical Twilight 5:53 AM PST 6:30 PM PST
Moon 8:39 AM PST (12/23) 7:15 PM PST (12/23)
Length of Visible Light 10h 25m
Length of Day
9h 25m
Waxing Crescent, 4% of the Moon is Illuminated
Dec 23
Waxing Crescent
Dec 28
First Quarter
Jan 4
Full
Jan 13
Last Quarter
Jan 20
New

Hourly Weather History & Observations

Time (PST) Temp. Dew Point Humidity Pressure Visibility Wind Dir Wind Speed Gust Speed Precip Events Conditions
12:20 AM 46.9 °F 45.0 °F 93% 30.25 in 9.0 mi Calm Calm - N/A   Scattered Clouds
12:28 AM 48.0 °F 46.0 °F 93% 30.25 in 5.0 mi Calm Calm - N/A   Mostly Cloudy
12:42 AM 46.9 °F 45.0 °F 93% 30.25 in 7.0 mi NNW 4.6 mph - N/A   Scattered Clouds
12:56 AM 46.9 °F 46.0 °F 97% 30.24 in 8.0 mi Calm Calm - N/A   Partly Cloudy
1:24 AM 46.9 °F 45.0 °F 93% 30.25 in 2.0 mi Calm Calm - N/A   Mostly Cloudy
1:32 AM 46.9 °F 45.0 °F 93% 30.25 in 1.0 mi Calm Calm - N/A   Mist
1:44 AM 46.9 °F 46.0 °F 97% 30.25 in 3.0 mi Calm Calm - N/A   Overcast
1:48 AM 46.9 °F 46.0 °F 97% 30.25 in 1.8 mi Calm Calm - N/A   Overcast
1:56 AM 46.9 °F 46.0 °F 97% 30.24 in 0.2 mi Calm Calm - N/A Fog Fog
2:18 AM 46.9 °F 45.0 °F 93% 30.25 in 0.5 mi Calm Calm - N/A Fog Fog
2:37 AM 46.0 °F 45.0 °F 96% 30.25 in 0.2 mi Calm Calm - N/A Fog Fog
2:56 AM 46.0 °F 45.0 °F 96% 30.24 in 0.2 mi Calm Calm - N/A Fog Fog
3:21 AM 46.9 °F 45.0 °F 93% 30.24 in 1.0 mi Calm Calm - N/A   Mist
3:32 AM 46.9 °F 45.0 °F 93% 30.24 in 0.8 mi Calm Calm - N/A   Mist
3:43 AM 46.0 °F 45.0 °F 96% 30.24 in 0.2 mi Calm Calm - N/A Fog Fog
3:52 AM 46.4 °F 44.6 °F 93% 30.24 in 0.5 mi Calm Calm - N/A Fog Fog
3:56 AM 46.0 °F 44.1 °F 93% 30.23 in 0.5 mi Calm Calm - N/A Fog Fog
4:38 AM 45.0 °F 44.1 °F 97% 30.24 in 0.5 mi Calm Calm - N/A Fog Fog
4:56 AM 45.0 °F 44.1 °F 97% 30.22 in 0.8 mi Calm Calm - N/A   Mist
5:19 AM 45.0 °F 43.0 °F 93% 30.23 in 0.2 mi Calm Calm - N/A Fog Fog
5:52 AM 44.6 °F 42.8 °F 93% 30.24 in 0.5 mi Calm Calm - N/A Fog Fog
5:56 AM 45.0 °F 43.0 °F 93% 30.23 in 0.5 mi Calm Calm - N/A Fog Fog
6:08 AM 44.1 °F 43.0 °F 96% 30.24 in 0.2 mi Calm Calm - N/A Fog Fog
6:18 AM 44.1 °F 43.0 °F 96% 30.25 in 0.5 mi Calm Calm - N/A Fog Fog
6:30 AM 44.1 °F 43.0 °F 96% 30.25 in 0.5 mi Calm Calm - N/A Fog Fog
6:42 AM 44.1 °F 42.1 °F 93% 30.25 in 0.2 mi Calm Calm - N/A Fog Fog
6:51 AM 42.8 °F 42.8 °F 100% 30.25 in 0.5 mi Calm Calm - N/A Fog Fog
6:56 AM 44.1 °F 42.1 °F 93% 30.25 in 0.5 mi Calm Calm - N/A Fog Fog
7:13 AM 44.1 °F 43.0 °F 96% 30.25 in 0.2 mi Calm Calm - N/A Fog Fog
7:28 AM 43.0 °F 42.1 °F 97% 30.25 in 0.5 mi Calm Calm - N/A Fog Fog
7:40 AM 43.0 °F 42.1 °F 97% 30.25 in 0.2 mi Calm Calm - N/A Fog Fog
7:56 AM 43.0 °F 42.1 °F 97% 30.25 in 0.2 mi Calm Calm - N/A Fog Fog
8:46 AM 44.1 °F 43.0 °F 96% 30.26 in 0.2 mi Calm Calm - N/A Fog Fog
8:56 AM 45.0 °F 43.0 °F 93% 30.25 in 0.5 mi Calm Calm - N/A Fog Fog
9:08 AM 46.0 °F 44.1 °F 93% 30.26 in 1.2 mi Calm Calm - N/A   Overcast
9:18 AM 45.0 °F 44.1 °F 97% 30.26 in 0.8 mi Calm Calm - N/A   Overcast
9:21 AM 45.0 °F 44.1 °F 97% 30.26 in 1.0 mi Calm Calm - N/A   Mist
9:29 AM 46.0 °F 45.0 °F 96% 30.26 in 1.0 mi Calm Calm - N/A   Mist
9:45 AM 46.9 °F 46.0 °F 97% 30.26 in 3.0 mi Calm Calm - N/A   Mostly Cloudy
9:56 AM 48.0 °F 46.9 °F 96% 30.26 in 10.0 mi Calm Calm - N/A   Scattered Clouds
10:56 AM 55.0 °F 48.0 °F 77% 30.25 in 10.0 mi Calm Calm - N/A   Clear
11:56 AM 57.9 °F 48.9 °F 72% 30.22 in 10.0 mi Calm Calm - N/A   Clear
12:56 PM 63.0 °F 50.0 °F 63% 30.18 in 10.0 mi Calm Calm - N/A   Clear
1:56 PM 64.9 °F 48.9 °F 56% 30.15 in 10.0 mi Calm Calm - N/A   Clear
2:56 PM 66.0 °F 51.1 °F 59% 30.14 in 10.0 mi West 4.6 mph - N/A   Clear
3:56 PM 61.0 °F 52.0 °F 72% 30.12 in 10.0 mi West 4.6 mph - N/A   Clear
4:56 PM 57.0 °F 51.1 °F 81% 30.13 in 10.0 mi Calm Calm - N/A   Clear
5:56 PM 55.0 °F 50.0 °F 83% 30.15 in 10.0 mi Calm Calm - N/A   Clear
6:56 PM 54.0 °F 48.9 °F 83% 30.15 in 10.0 mi Calm Calm - N/A   Clear
7:56 PM 51.1 °F 48.0 °F 89% 30.15 in 10.0 mi Calm Calm - N/A   Clear
8:56 PM 48.9 °F 46.9 °F 93% 30.14 in 9.0 mi Calm Calm - N/A   Clear
9:56 PM 48.9 °F 46.0 °F 90% 30.14 in 7.0 mi Calm Calm - N/A   Clear
10:43 PM 46.0 °F 44.1 °F 93% 30.14 in 1.8 mi Calm Calm - N/A   Partly Cloudy
10:49 PM 46.0 °F 44.1 °F 93% 30.14 in 0.8 mi Calm Calm - N/A   Mist
10:56 PM 46.0 °F 44.1 °F 93% 30.14 in 0.5 mi Calm Calm - N/A Fog Fog
11:17 PM 46.0 °F 45.0 °F 96% 30.15 in 2.0 mi Calm Calm - N/A   Overcast
11:23 PM 46.9 °F 45.0 °F 93% 30.15 in 0.8 mi Calm Calm - N/A   Mist
11:33 PM 46.9 °F 45.0 °F 93% 30.15 in 0.2 mi Calm Calm - N/A Fog Fog
11:56 PM 46.9 °F 46.0 °F 97% 30.12 in 0.2 mi Calm Calm - N/A Fog Fog